Find KUIPER-00425

NORAD ID: 68934 Int'l Des: 2026-098R Owner: KUIP Country: US Constellation: amazon-leo operational
LEOCIRCULAR

Current View

Loading 3D Globe...

About KUIPER-00425

KUIPER-00425 (NORAD 68934) is a amazon-leo constellation satellite launched Apr 30, 2026 by KUIP of US. It operates in LEO, CIRCULAR orbit with a mass of 490.00 kg.

About KUIPER-00425

Description loading...

Upcoming Passes

Passes for default location (London). Set your location on the main map for personalized predictions.

Altitude History

Loading altitude history...

Two-Line Element Set

1 68934U 26098R 26170.71615037 .00006283 00000-0 24275-3 0 9993
2 68934 51.8756 57.1521 0017907 155.1958 204.9889 15.27416025 7711
Epoch: Jun 19, 2026 • Age: 16 hours

Current Status

Altitude 485.7 km
Velocity 7.63 km/s
Sub-Earth Point 51.88°N, 90.34°E
Launch Date Apr 30, 2026
Age 0.1 years
Type internet

Technical Details

Classification Payload
Mass 490.00 kg
Dry Mass 490.00 kg
Total Mass 490.00 kg
Length 1.80 m
Diameter 0.70 m
Span 5.00 m
Shape Box + 2 pan
Manufacturer KUIP
Bus Type Kuiper
Phase Status In Orbit
Owner/State KUIP/US

Most Searched